Vorticity
nan nan nan nan nan nan nan nan nan nan nan nan nan nan nan nan nan nan nan nan nan nan
nan 8 8 8 9 8 7 6 6 8 9 9 9 9 10 9 7 9 10 12 9 nan
nan 9 8 9 8 7 8 7 9 9 9 9 10 10 11 8 8 8 9 9 9 nan
nan 9 9 9 9 9 8 10 9 9 9 10 10 10 10 8 9 10 8 8 9 nan
nan 9 9 9 8 9 10 9 9 10 10 10 10 10 10 10 10 10 10 10 9 nan
nan 10 9 8 8 10 10 9 10 10 10 9 10 10 10 10 9 10 11 10 10 nan
nan 10 10 9 10 10 10 10 10 10 10 10 10 12 10 11 12 12 11 11 11 nan
nan 9 9 10 10 10 10 10 10 10 11 10 13 7 5 8 12 13 12 13 12 nan
nan 11 10 9 9 10 10 11 10 10 10 11 8 -2 3 9 16 13 11 12 13 nan
nan 10 10 10 10 10 11 11 10 11 10 11 6 4 8 12 16 14 11 9 10 nan
nan 10 10 10 11 11 11 10 10 10 11 11 5 3 9 17 17 14 11 10 10 nan
nan 11 10 9 10 11 10 10 12 10 10 9 5 5 10 21 21 13 14 13 13 nan
nan 10 10 10 11 11 11 11 9 9 10 10 9 10 8 18 20 13 14 15 14 nan
nan nan nan nan nan nan nan nan nan nan nan nan nan nan nan nan nan nan nan nan nan nan
CAPE
0 0 0 0 0 0 0 0 0 0 0 0 0 0 0 0 0 0 2 0 2 7
0 0 0 0 0 0 0 0 0 0 0 0 0 0 0 0 0 0 0 1 2 7
0 0 0 0 0 0 0 0 0 0 0 0 0 0 0 2 1 2 7 8 5 6
0 0 0 0 0 0 0 0 0 0 0 0 0 0 0 0 3 7 6 8 11 10
0 0 0 0 0 0 0 0 0 0 0 0 1 0 4 8 4 11 14 11 17 13
0 0 0 0 0 0 0 0 0 0 1 1 1 5 8 8 11 14 15 16 15 13
0 0 0 0 0 0 0 0 0 0 2 2 3 5 5 7 9 5 3 3 6 7
0 0 0 0 0 0 0 0 0 2 3 3 3 2 6 8 18 19 15 6 3 0
0 0 0 0 0 0 0 0 2 2 3 4 2 9 36 45 32 36 34 37 32 25
0 0 0 0 0 0 0 1 2 3 4 4 3 18 43 56 31 34 37 56 39 31
0 0 0 0 0 0 0 2 5 5 4 7 6 17 33 54 47 36 20 13 9 9
0 0 0 0 0 0 3 4 4 9 7 3 3 11 41 58 37 35 24 9 3 2
0 0 1 1 1 1 3 5 11 6 1 3 2 9 42 45 46 33 41 57 50 59
0 0 0 1 2 2 3 5 3 3 0 0 1 3 41 69 34 57 64 58 24 23